Location: Tr�vern
(48.0333°N, 4.6000°W)
Time: 18:00:40
(UTC+00:00)

CZ-2D R/B - Pass Details

Date: 14 July 2020
Orbit: 792 x 844 km, 98.7° (Epoch: 13 August)

Event Time Altitude Azimuth Distance (km) Brightness Sun altitude
Rises 00:39:38 0° 28° (NNE) 3,351 6.5 -20.2°
Reaches altitude 10° 00:42:46 10° 47° (NE) 2,423 5.2 -20.2°
Maximum altitude 00:46:22 18° 90° (E) 1,927 4.1 -20.2°
Enters shadow 00:49:08 13° 124° (SE) 2,245 4.1 -20.1°
